Swisher, IA

2:29 AM CDT on September 30, 2016 (GMT -0500)
The Eastern Iowa Airport

Weather History for KCID - December, 2012

Change the Weather History Date:

Sunday, December 23, 2012

  Actual Average Record
Temperature  
Mean Temperature 16 °F 21 °F  
Max Temperature 22 °F 29 °F 56 °F (1965)
Min Temperature 10 °F 13 °F -22 °F (1989)
Degree Days  
Heating Degree Days 49 44  
Month to date heating degree days 729 936  
Since 1 July heating degree days 2322 2382  
Cooling Degree Days 0 0  
Month to date cooling degree days 0 0  
Year to date cooling degree days 1052 748  
Moisture  
Dew Point 15 °F    
Average Humidity 86    
Maximum Humidity 100    
Minimum Humidity 71    
Precipitation  
Precipitation 0.00 in 0.04 in 0.43 in (2015)
Month to date precipitation 0.45 1.14  
Year to date precipitation 23.47 34.33  
Sea Level Pressure  
Sea Level Pressure 30.01 in    
Wind  
Wind Speed 8 mph (NNE)    
Max Wind Speed 15 mph    
Max Gust Speed 18 mph    
Visibility 5 miles    
Events      
T = Trace of Precipitation, MM = Missing Value Source: NWS Daily Summary

Daily Weather History Graph

Daily Weather History Graph

Search for Another Location

Airport or City:

Trip Planner

Search our weather history database for the weather conditions in past years. The results will help you decide how hot, cold, wet, or windy it might be!

Date:

Astronomy

Dec. 23, 2012 Rise Set
Actual Time 7:32 AM CST 4:40 PM CST
Civil Twilight 7:00 AM CST 5:11 PM CST
Nautical Twilight 6:25 AM CST 5:47 PM CST
Astronomical Twilight 5:51 AM CST 6:21 PM CST
Moon 1:32 PM CST (12/23) 3:13 AM CST (12/23)
Length of Visible Light 10h 11m
Length of Day
9h 07m
Waxing Gibbous, 82% of the Moon is Illuminated
Dec 23
Waxing Gibbous
Dec 28
Full
Jan 4
Last Quarter
Jan 11
New
Jan 18
First Quarter

Hourly Weather History & Observations

Time (CST) Temp. Windchill Dew Point Humidity Pressure Visibility Wind Dir Wind Speed Gust Speed Precip Events Conditions
12:52 AM 12.0 °F 0.5 °F 10.0 °F 92% 29.98 in 7.0 mi NNW 8.1 mph - N/A   Clear
1:52 AM 10.9 °F 0.2 °F 9.0 °F 92% 29.98 in 7.0 mi NNW 6.9 mph - N/A   Clear
2:52 AM 10.9 °F 0.2 °F 9.0 °F 92% 29.99 in 7.0 mi NNW 6.9 mph - N/A   Clear
3:52 AM 12.0 °F 2.7 °F 9.0 °F 88% 29.97 in 7.0 mi NNW 5.8 mph - N/A   Clear
4:52 AM 10.9 °F -1.8 °F 8.1 °F 88% 30.00 in 7.0 mi NNW 9.2 mph - N/A   Clear
5:52 AM 12.0 °F -0.4 °F 8.1 °F 84% 30.01 in 7.0 mi NNW 9.2 mph - N/A   Clear
6:52 AM 10.9 °F -0.8 °F 8.1 °F 88% 30.04 in 7.0 mi NNW 8.1 mph - N/A   Clear
7:52 AM 12.0 °F 0.5 °F 9.0 °F 88% 30.06 in 6.0 mi NNW 8.1 mph - N/A   Clear
8:52 AM 14.0 °F 8.2 °F 10.0 °F 84% 30.06 in 6.0 mi NNE 3.5 mph - N/A   Clear
9:52 AM 19.0 °F 11.1 °F 12.9 °F 77% 30.08 in 6.0 mi NNE 5.8 mph - N/A   Haze
10:52 AM 21.0 °F 10.6 °F 14.0 °F 74% 30.07 in 7.0 mi NE 9.2 mph - N/A   Clear
11:52 AM 21.0 °F 9.9 °F 15.1 °F 78% 30.06 in 7.0 mi ENE 10.4 mph - N/A   Clear
12:52 PM 21.0 °F 10.6 °F 15.1 °F 78% 30.04 in 7.0 mi ENE 9.2 mph - N/A   Clear
1:52 PM 21.0 °F 10.6 °F 15.1 °F 78% 30.04 in 6.0 mi ENE 9.2 mph - N/A   Haze
2:52 PM 19.9 °F 7.9 °F 15.1 °F 81% 30.03 in 5.0 mi NE 11.5 mph - N/A   Haze
3:43 PM 19.4 °F 8.6 °F 15.8 °F 86% 29.99 in 4.0 mi NE 9.2 mph - N/A   Mostly Cloudy
3:52 PM 19.0 °F 8.2 °F 16.0 °F 88% 30.05 in 4.0 mi NE 9.2 mph - N/A   Overcast
4:15 PM 19.4 °F 8.6 °F 17.6 °F 93% 30.01 in 4.0 mi NE 9.2 mph - N/A   Overcast
4:52 PM 19.9 °F 8.6 °F 17.1 °F 89% 30.06 in 4.0 mi NNE 10.4 mph - N/A   Overcast
5:52 PM 19.9 °F 9.3 °F 18.0 °F 92% 30.05 in 5.0 mi NE 9.2 mph - N/A   Overcast
6:52 PM 19.9 °F 6.7 °F 18.0 °F 92% 30.02 in 3.0 mi NE 13.8 mph - N/A   Overcast
7:52 PM 19.9 °F 10.1 °F 18.0 °F 92% 30.02 in 4.0 mi ENE 8.1 mph - N/A   Overcast
8:52 PM 19.9 °F 10.1 °F 19.0 °F 96% 30.01 in 5.0 mi ENE 8.1 mph - N/A   Overcast
9:52 PM 21.0 °F 12.4 °F 19.0 °F 92% 30.02 in 6.0 mi East 6.9 mph - N/A   Overcast
10:26 PM 21.2 °F 13.6 °F 19.4 °F 93% 29.95 in 4.0 mi ENE 5.8 mph - N/A   Overcast
10:52 PM 21.0 °F 16.2 °F 21.0 °F 100% 29.99 in 4.0 mi NNE 3.5 mph - N/A   Overcast
11:10 PM 21.2 °F 14.9 °F 21.2 °F 100% 29.94 in 2.5 mi North 4.6 mph - N/A   Overcast
11:18 PM 21.2 °F 13.6 °F 21.2 °F 100% 29.94 in 3.0 mi North 5.8 mph - N/A   Overcast
11:43 PM 21.2 °F - 21.2 °F 100% 29.94 in 2.5 mi North - - N/A   Mist
11:50 PM 21.2 °F - 21.2 °F 100% 29.93 in - North - - N/A   Unknown
11:52 PM 21.9 °F - 21.0 °F 96% 29.98 in - North - - N/A   Unknown